User: anonymous   Login
Location: Doux
(49.5045°N, 4.4321°E)
Time: 07:47:00
(UTC+00:00)
Language:

Cosmos 1892 - Orbit

View from above orbital plane
View from above orbital plane
View from above satellite
View from above satellite

Ground track
Ground track

The orbit data is extracted from the following two-line orbital elements,

1 18421U 87088A   24196.59239950  .00014675  00000-0  42369-3 0  9991
2 18421  82.4906 229.7240 0008615 249.9661 110.0655 15.35510158 11093
Epoch (UTC): 14 July 2024 14:13:03
Eccentricity: 0.0008615
inclination: 82.4906°
perigee height: 453 km
apogee height: 465 km
right ascension of ascending node: 229.7240°
argument of perigee: 249.9661°
revolutions per day: 15.35510158
mean anomaly at epoch: 110.0655°
orbit number at epoch: 1109

The dashed part of the orbit path shows where the satellite is in the earth's shadow,  

DLR